Orbital Elements at Epoch 2455129.5 (2009-Oct-25.0) TDB
Reference: JPL 8 (heliocentric ecliptic J2000)
Element | Value | Uncertainty (1-sigma) | Units |
e | .6605275418525263 | 0.010215 | |
a | .8901982039900653 | 0.001733 | au |
q | .3021977725469737 | 0.0085169 | au |
i | 9.640850322346751 | 0.3252 | deg |
node | 212.5818951407003 | 0.15437 | deg |
peri | 328.4222415903394 | 0.36342 | deg |
M | 266.1882296104815 | 0.96397 | deg |
tp | 2455209.443531382509 (2010-Jan-12.94353138) | 0.59029 | TDB |
period | 306.7810273509001 0.84 | 0.89587 0.002453 | d yr |
n | 1.173475436563511 | 0.0034268 | deg/d |
Q | 1.478198635433157 | 0.0028778 | au |
|
| | Orbit Determination Parameters
Additional Information
|